Zurück zum Katalog

STARLINK-34737

AktivKommunikationSSO
NORAD 64933·PAYLOAD·🇺🇸 United States

Gestartet Jul 26, 2025 von Vandenberg Space Force Base

Loading…

Nächste Überflüge (nächste 24 Stunden)

TLE

AktuellSource: CelesTrak SupGP

Epoche: Sep 15, 2026, 02:57 UTC

1 64933C 25158B   26258.12340278  .00005111  00000+0  15862-3 0  2586
2 64933  97.2846 116.5173 0001761  96.2944 263.4227 15.33442499    17

Verfolge STARLINK-34737 in Echtzeit mit AllMySat

Download on the App Store